When you browse on this site, cookies collect data to enhance your experience and personalize the content and advertising you see.
Visit our Privacy Policy to learn more. By continuing to use the site, you agree to this use of cookies and data.
  • In Romania
  • List of Countries
  • For 7 days
  • Water Temperature
  • Satellite Maps
  • Weather Map
  • Weather Widgets
  • user-avatar
    Login

    Hourly Weather Lievin

    Today, 17 June, Monday

    Time Temperature Precipitation Wind Pressure Humidity
    00:00 +14°C° 0 mm 2 mps 758 mmHg 89%
    01:00 +14°C° 0 mm 2 mps 758 mmHg 90%
    02:00 +14°C° 0 mm 2 mps 758 mmHg 91%
    03:00 +14°C° 0 mm 2 mps 758 mmHg 91%
    04:00 +14°C° 0 mm 2 mps 758 mmHg 89%
    05:00 +14°C° 0 mm 3 mps 758 mmHg 88%
    06:00 +16°C° 0 mm 2 mps 758 mmHg 84%
    07:00 +18°C° 0 mm 2 mps 758 mmHg 78%
    08:00 +19°C° 0 mm 3 mps 758 mmHg 73%
    09:00 +21°C° 0 mm 3 mps 758 mmHg 67%
    10:00 +21°C° 0 mm 3 mps 757 mmHg 66%
    11:00 +23°C° 0 mm 2 mps 757 mmHg 65%
    12:00 +24°C° 0 mm 2 mps 757 mmHg 63%
    13:00 +24°C° 0.1 mm 2 mps 757 mmHg 63%
    14:00 +24°C° 0.1 mm 2 mps 756 mmHg 63%
    15:00 +25°C° 0.1 mm 2 mps 756 mmHg 63%
    16:00 +24°C° 0.2 mm 2 mps 756 mmHg 67%
    17:00 +24°C° 0.2 mm 1 mps 756 mmHg 70%
    18:00 +23°C° 0.2 mm 1 mps 756 mmHg 74%
    19:00 +22°C° 0.1 mm 1 mps 756 mmHg 79%
    20:00 +20°C° 0.1 mm 1 mps 756 mmHg 83%
    21:00 +17°C° 0.1 mm 2 mps 756 mmHg 88%
    22:00 +16°C° 0 mm 1 mps 756 mmHg 89%
    23:00 +16°C° 0 mm 1 mps 755 mmHg 90%

    Tomorrow, 18 June, Tuesday

    Time Temperature Precipitation Wind Pressure Humidity
    00:00 +15°C° 0 mm 1 mps 755 mmHg 90%
    01:00 +15°C° 0 mm 1 mps 755 mmHg 91%
    02:00 +14°C° 0 mm 2 mps 755 mmHg 91%
    03:00 +14°C° 0 mm 2 mps 754 mmHg 92%
    04:00 +15°C° 0 mm 2 mps 754 mmHg 90%
    05:00 +16°C° 0 mm 1 mps 754 mmHg 89%
    06:00 +16°C° 0 mm 1 mps 754 mmHg 88%
    07:00 +18°C° 0 mm 2 mps 754 mmHg 83%
    08:00 +20°C° 0 mm 2 mps 754 mmHg 78%
    09:00 +21°C° 0 mm 2 mps 754 mmHg 74%
    10:00 +24°C° 0 mm 2 mps 753 mmHg 69%
    11:00 +25°C° 0 mm 2 mps 753 mmHg 63%
    12:00 +26°C° 0 mm 2 mps 753 mmHg 58%
    13:00 +26°C° 0.1 mm 3 mps 752 mmHg 58%
    14:00 +26°C° 0.1 mm 3 mps 752 mmHg 59%
    15:00 +27°C° 0.1 mm 4 mps 751 mmHg 59%
    16:00 +25°C° 0.4 mm 3 mps 751 mmHg 65%
    17:00 +24°C° 0.4 mm 2 mps 751 mmHg 71%
    18:00 +23°C° 0.4 mm 1 mps 751 mmHg 77%
    19:00 +22°C° 0 mm 1 mps 750 mmHg 80%
    20:00 +20°C° 0 mm 1 mps 750 mmHg 83%
    21:00 +19°C° 0 mm 1 mps 750 mmHg 86%
    22:00 +18°C° 1.4 mm 2 mps 750 mmHg 88%
    23:00 +18°C° 1.4 mm 3 mps 749 mmHg 89%

    Day after tomorrow, 19 June, Wednesday

    Time Temperature Precipitation Wind Pressure Humidity
    00:00 +18°C° 1.4 mm 4 mps 749 mmHg 91%
    01:00 +18°C° 0.4 mm 4 mps 749 mmHg 91%
    02:00 +17°C° 0.4 mm 3 mps 748 mmHg 91%
    03:00 +17°C° 0.4 mm 3 mps 748 mmHg 91%
    04:00 +18°C° 0.1 mm 4 mps 747 mmHg 90%
    05:00 +17°C° 0.1 mm 5 mps 747 mmHg 89%
    06:00 +19°C° 0.1 mm 6 mps 747 mmHg 88%
    07:00 +19°C° 0 mm 6 mps 748 mmHg 87%
    08:00 +19°C° 0 mm 6 mps 748 mmHg 86%
    09:00 +19°C° 0 mm 6 mps 748 mmHg 85%
    10:00 +20°C° 0.1 mm 6 mps 749 mmHg 81%
    11:00 +20°C° 0.1 mm 6 mps 750 mmHg 76%
    12:00 +21°C° 0.1 mm 6 mps 750 mmHg 72%
    13:00 +21°C° 0.1 mm 6 mps 750 mmHg 70%
    14:00 +21°C° 0.1 mm 6 mps 750 mmHg 69%
    15:00 +21°C° 0.1 mm 6 mps 750 mmHg 67%
    16:00 +21°C° 0 mm 5 mps 750 mmHg 71%
    17:00 +20°C° 0 mm 5 mps 750 mmHg 74%
    18:00 +19°C° 0 mm 4 mps 750 mmHg 77%
    19:00 +17°C° 0 mm 4 mps 751 mmHg 82%
    20:00 +16°C° 0 mm 3 mps 751 mmHg 87%
    21:00 +13°C° 0 mm 3 mps 751 mmHg 91%
    22:00 +13°C° 0 mm 3 mps 751 mmHg 92%
    23:00 +12°C° 0 mm 3 mps 751 mmHg 92%

    20 June, Thursday

    Time Temperature Precipitation Wind Pressure Humidity
    00:00 +12°C° 0 mm 3 mps 751 mmHg 93%
    01:00 +12°C° 0 mm 3 mps 751 mmHg 93%
    02:00 +11°C° 0 mm 3 mps 752 mmHg 93%
    03:00 +12°C° 0 mm 2 mps 752 mmHg 93%
    04:00 +13°C° 0 mm 2 mps 752 mmHg 91%
    05:00 +14°C° 0 mm 2 mps 752 mmHg 89%
    06:00 +14°C° 0 mm 2 mps 752 mmHg 88%
    07:00 +15°C° 0 mm 2 mps 752 mmHg 86%
    08:00 +15°C° 0 mm 2 mps 752 mmHg 85%
    09:00 +16°C° 0 mm 2 mps 753 mmHg 84%
    10:00 +17°C° 0 mm 3 mps 753 mmHg 78%
    11:00 +18°C° 0 mm 3 mps 753 mmHg 72%
    12:00 +19°C° 0 mm 4 mps 753 mmHg 66%
    13:00 +19°C° 0 mm 4 mps 753 mmHg 66%
    14:00 +18°C° 0 mm 4 mps 753 mmHg 66%
    15:00 +18°C° 0 mm 4 mps 753 mmHg 66%
    16:00 +17°C° 0 mm 4 mps 753 mmHg 67%
    17:00 +17°C° 0 mm 4 mps 753 mmHg 68%
    18:00 +17°C° 0 mm 4 mps 753 mmHg 70%
    19:00 +14°C° 0 mm 4 mps 753 mmHg 76%
    20:00 +12°C° 0 mm 3 mps 754 mmHg 83%
    21:00 +11°C° 0 mm 3 mps 754 mmHg 90%
    22:00 +10°C° 0 mm 3 mps 754 mmHg 90%
    23:00 +10°C° 0 mm 3 mps 755 mmHg 91%

    21 June, Friday

    Time Temperature Precipitation Wind Pressure Humidity
    00:00 +10°C° 0 mm 3 mps 755 mmHg 92%
    01:00 +10°C° 0 mm 3 mps 755 mmHg 93%
    02:00 +10°C° 0 mm 3 mps 755 mmHg 94%
    03:00 +10°C° 0 mm 3 mps 755 mmHg 95%
    04:00 +11°C° 0 mm 3 mps 755 mmHg 92%
    05:00 +12°C° 0 mm 3 mps 756 mmHg 90%
    06:00 +13°C° 0 mm 3 mps 756 mmHg 88%
    07:00 +14°C° 0 mm 3 mps 756 mmHg 81%
    08:00 +16°C° 0 mm 3 mps 756 mmHg 73%
    09:00 +18°C° 0 mm 4 mps 757 mmHg 66%
    10:00 +18°C° 0.1 mm 4 mps 757 mmHg 64%
    11:00 +19°C° 0.1 mm 4 mps 757 mmHg 61%
    12:00 +19°C° 0.1 mm 4 mps 757 mmHg 58%
    13:00 +19°C° 0 mm 4 mps 756 mmHg 59%
    14:00 +19°C° 0 mm 4 mps 756 mmHg 59%
    15:00 +19°C° 0 mm 4 mps 756 mmHg 59%
    16:00 +19°C° 0 mm 4 mps 757 mmHg 63%
    17:00 +18°C° 0 mm 3 mps 757 mmHg 66%
    18:00 +18°C° 0 mm 3 mps 757 mmHg 70%
    19:00 +16°C° 0 mm 3 mps 757 mmHg 75%
    20:00 +14°C° 0 mm 2 mps 758 mmHg 81%
    21:00 +12°C° 0 mm 2 mps 758 mmHg 87%
    22:00 +10°C° 0 mm 2 mps 758 mmHg 87%
    23:00 +11°C° 0 mm 1 mps 758 mmHg 87%

    22 June, Saturday

    Time Temperature Precipitation Wind Pressure Humidity
    00:00 +10°C° 0 mm 1 mps 758 mmHg 87%
    01:00 +10°C° 0 mm 1 mps 758 mmHg 87%
    02:00 +10°C° 0 mm 1 mps 758 mmHg 86%
    03:00 +8°C° 0 mm 0 mps 758 mmHg 86%
    04:00 +10°C° 0 mm 1 mps 758 mmHg 84%
    05:00 +12°C° 0 mm 1 mps 758 mmHg 82%
    06:00 +13°C° 0 mm 1 mps 758 mmHg 80%
    07:00 +14°C° 0 mm 1 mps 758 mmHg 75%
    08:00 +16°C° 0 mm 2 mps 758 mmHg 70%
    09:00 +17°C° 0 mm 2 mps 758 mmHg 65%
    10:00 +18°C° 0 mm 2 mps 758 mmHg 61%
    11:00 +19°C° 0 mm 2 mps 758 mmHg 56%
    12:00 +20°C° 0 mm 2 mps 758 mmHg 52%
    13:00 +20°C° 0 mm 2 mps 758 mmHg 52%
    14:00 +20°C° 0 mm 2 mps 758 mmHg 53%
    15:00 +21°C° 0 mm 3 mps 757 mmHg 53%
    16:00 +20°C° 0 mm 3 mps 757 mmHg 59%
    17:00 +19°C° 0 mm 3 mps 757 mmHg 66%
    18:00 +18°C° 0 mm 4 mps 757 mmHg 72%
    19:00 +17°C° 0 mm 3 mps 758 mmHg 73%
    20:00 +16°C° 0 mm 3 mps 758 mmHg 75%
    21:00 +13°C° 0 mm 3 mps 758 mmHg 77%
    22:00 +13°C° 0 mm 3 mps 758 mmHg 78%
    23:00 +14°C° 0 mm 2 mps 758 mmHg 80%
    Show more